Regional Weather Roundup
Issued by NWS

Home | Current Version | Previous Version | Graphics & Text | Print | Product List | Glossary On
Versions: 1 2 3 4 5 6 7 8 9 10 11 12 13 14 15 16 17 18 19 20 21 22 23 24 25 26 27 28 29 30 31 32 33 34 35 36 37 38 39 40 41 42 43 44 45 46 47 48 49 50
000
ASUS43 KDTX 311401
RWRMI
MICHIGAN HOURLY REGIONAL WEATHER ROUNDUP
NATIONAL WEATHER SERVICE DETROIT/PONTIAC MI
1000 AM EDT WED AUG 31 2016

NOTE: "FAIR" INDICATES FEW OR NO CLOUDS BELOW 12,000 FEET WITH NO
SIGNIFICANT WEATHER AND/OR OBSTRUCTION TO VISIBILITY.

MIZ047>049-052>055-059>063-066>070-074>076-081>083-311500-
SOUTHEAST LOWER MICHIGAN

CITY           SKY/WX    TMP DP  RH WIND       PRES   REMARKS
ADRIAN         CLOUDY    72  70  93 NW5       30.02S
ALMA           CLOUDY    66  60  79 NW9       30.06R
ANN ARBOR      CLOUDY    73  70  90 MISG      30.00S
BAD AXE        CLOUDY    66  61  83 N8        30.03R
CARO           SUNNY     70  63  78 N7        30.01F
DETROIT CITY   CLOUDY    74  70  87 N3        29.99F
DETROIT        CLOUDY    74  70  87 N7        30.00S
FLINT          CLOUDY    70  60  70 NE7       30.02S
GROSSE ILE     CLOUDY    74  70  87 CALM      29.98F
HILLSDALE      CLOUDY    70  69  95 CALM      30.03R FOG
HOWELL         CLOUDY    67  65  94 N6        30.02S

CITY           SKY/WX    TMP DP  RH WIND       PRES   REMARKS
JACKSON        CLOUDY    72  69  90 N6        30.02S
LAMBERTVILLE   CLOUDY    73  70  91 CALM      30.00F
LANSING        CLOUDY    70  63  78 NE7       30.04S
LAPEER         FAIR      70  57  64 CALM      30.02S
MASON          CLOUDY    69  67  93 NE3       30.03S
MONROE         CLOUDY    73  71  93 W12       29.99S
MT. CLEMENS    CLOUDY    72  70  94 N6        29.97F
PONTIAC        CLOUDY    70  68  93 NE8       30.00S FOG
PORT HOPE        N/A     69  62  78 NW10G21   30.00S
PORT HURON     CLOUDY    70  64  83 N3        29.99S
TRI CITIES     CLOUDY    67  58  72 NW9       30.04S
MIDLAND        CLOUDY    66  57  73 NW6       30.04S
TROY           CLOUDY    73  69  88 NE7       30.02S
SAGINAW HB     SUNNY     70  59  68 N9        30.02S
$$
MIZ043>046-050>051-056>058-064>065-071>073-077>080-311500-
SOUTHWEST LOWER MICHIGAN

CITY           SKY/WX    TMP DP  RH WIND       PRES   REMARKS
BATTLE CREEK   CLOUDY    71  69  93 N6        30.03F
BENTON HARBOR  CLOUDY    76  71  85 CALM      30.02S
BIG RAPIDS     SUNNY     66  59  77 N9        30.07R
COLDWATER      CLOUDY    72  72  98 NE3       30.02F FOG
FREMONT        PTSUNNY   66  56  68 N8        30.07R
HOLLAND        CLOUDY    72  67  84 VRB6      30.05R
GRAND RAPIDS   CLOUDY    70  62  76 NE9       30.05S
IONIA          PTSUNNY   69  62  79 NE7       30.04S
KALAMAZOO      CLOUDY    74  67  78 CALM      30.03S
LUDINGTON      SUNNY     67  58  73 NE6       30.08S
MARSHALL       CLOUDY    73  69  89 N5        30.03R
MOUNT PLEASANT CLOUDY    66  59  78 N3        30.05R
MUSKEGON       CLOUDY    69  57  65 NE12      30.07S
SOUTH HAVEN    CLOUDY    74  73  96 NE6       30.03S FOG
$$
MIZ016>042-311500-
NORTHERN LOWER MICHIGAN

CITY           SKY/WX    TMP DP  RH WIND       PRES   REMARKS
ALPENA         SUNNY     68  60  75 N9        30.05S
BEAVER ISLAND  SUNNY     67  59  76 N8        30.09S
BELLAIRE       SUNNY     66  60  81 CALM      30.08S
CADILLAC       MOSUNNY   65  56  72 N8        30.08S
CHARLEVOIX     SUNNY     69  56  62 N8        30.11R
FRANKFORT      MOSUNNY   69  56  64 N3        30.09R
GAYLORD        SUNNY     66  54  65 NE8       30.08S
GRAYLING       SUNNY     66  57  74 NW6       30.08S
HARBOR SPRINGS SUNNY     66  57  73 N3        30.08S
HOUGHTON LAKE  SUNNY     65  56  72 N9        30.08R
MANISTEE       SUNNY     70  58  65 NE8       30.08S
OSCODA         SUNNY     65  60  85 N9        30.02R
PELLSTON       SUNNY     68  56  65 N9        30.08S
ROGERS CITY    SUNNY     67  57  70 N8        30.07S
TRAVERSE CITY  MOSUNNY   69  57  65 N9        30.06S
$$
MIZ007>008-015-311500-
EASTERN UPPER MICHIGAN

CITY           SKY/WX    TMP DP  RH WIND       PRES   REMARKS
KINROSS        SUNNY     65  59  81 NW8       30.07S
MACKINAC ISLAN SUNNY     65  61  88 NW7       30.07S
NEWBERRY       SUNNY     64  60  86 NW6       30.09S
S. S. MARIE    SUNNY     67  57  70 NW8       30.05F
MUNISING         N/A     68  59  73 N10       30.10S
$$
MIZ004>006-011>014-085-311500-
CENTRAL UPPER MICHIGAN

CITY           SKY/WX    TMP DP  RH WIND       PRES   REMARKS
MANISTIQUE     SUNNY     65  60  83 NW7       30.09F
ESCANABA       SUNNY     65  58  78 N7        30.11F
MENOMINEE      SUNNY    N/A N/A N/A N6        30.13
SAWYER-GWINN   SUNNY     63  57  82 N8        30.13S
$$
MIZ001>003-009>011-084-311500-
WESTERN UPPER MICHIGAN

CITY           SKY/WX    TMP DP  RH WIND       PRES   REMARKS
IRON MOUNTAIN  SUNNY     63  55  75 NW5       30.13F
HOUGHTON       CLOUDY    64  59  83 NW7       30.15S
COPPER HARBOR    N/A     65  60  84 NE12      30.13R
IRONWOOD       SUNNY     60  58  92 W5        30.19F
$$

ABBREVIATIONS USED IN REMARKS
   TC - TEMPERATURE IN CELSIUS
  WCI - WIND CHILL INDEX
   HX - HEAT INDEX
  VSB - VISIBILITY





USA.gov is the U.S. government's official web portal to all federal, state and local government web resources and services.